DW5499 Weather Reports


Display with metric or nautical units.
time (UTC)temp
F
wind
direction
speed
MPH
gust
MPH
rain 1hr
in
rain 24hr
in
rain mn
in
humidity
%
barometer
mb
20260506164556 54 328 8.0 15.0 0.00 0.01 0.01 36 1020.8
20260506163104 54 351 8.0 14.0 0.00 0.01 0.01 37 1020.7
20260506161600 54 314 7.0 15.0 0.00 0.01 0.01 38 1020.8
20260506160053 54 22 5.0 16.0 0.00 0.01 0.01 40 1020.5
20260506154600 54 355 8.0 15.0 0.00 0.01 0.01 39 1020.2
20260506153051 53 345 8.0 14.0 0.00 0.01 0.01 39 1020.2
20260506151549 54 316 4.0 8.0 0.00 0.01 0.01 45 1020.3
20260506150044 52 345 5.0 9.0 0.00 0.01 0.01 47 1020.2
20260506144544 52 340 6.0 11.0 0.00 0.09 0.01 50 1020.2
20260506143040 51 284 3.0 7.0 0.00 0.09 0.01 54 1020.2
20260506141538 51 360 1.0 5.0 0.00 0.09 0.01 55 1019.9
20260506140039 50 340 2.0 8.0 0.00 0.09 0.01 56 1019.9
20260506134532 49 327 3.0 5.0 0.00 0.18 0.01 57 1019.7
20260506133031 49 272 2.0 4.0 0.00 0.18 0.01 58 1019.4
20260506131532 49 5 3.0 8.0 0.00 0.18 0.01 59 1019.3
20260506130030 48 326 3.0 8.0 0.00 0.18 0.01 62 1019.1
20260506124525 47 291 1.0 6.0 0.00 0.21 0.01 67 1018.9
20260506123023 46 331 0.0 4.0 0.00 0.21 0.01 75 1018.4
20260506121521 45 257 0.0 3.0 0.00 0.21 0.01 79 1018.3
20260506120022 46 261 0.0 1.0 0.00 0.21 0.01 77 1017.8
20260506114516 46 279 0.0 0.0 0.00 0.22 0.01 76 1017.5
20260506113018 46 279 0.0 0.0 0.00 0.22 0.01 75 1017.4
20260506111521 46 259 0.0 1.0 0.00 0.22 0.01 75 1017.4
20260506110015 46 255 0.0 3.0 0.00 0.22 0.01 75 1017.4
20260506104515 46 270 0.0 3.0 0.00 0.22 0.01 76 1017.6
20260506103019 46 244 1.0 4.0 0.00 0.22 0.01 77 1017.5
20260506101513 46 255 1.0 5.0 0.00 0.22 0.01 77 1017.5
20260506100011 46 257 1.0 4.0 0.00 0.22 0.01 80 1017.3
20260506094509 46 214 1.0 4.0 0.00 0.22 0.01 80 1016.6
20260506093013 46 230 2.0 5.0 0.00 0.22 0.01 81 1016.8
20260506091508 46 244 2.0 4.0 0.00 0.22 0.01 81 1016.8
20260506090007 46 245 2.0 5.0 0.00 0.22 0.01 81 1016.7
20260506084511 46 263 1.0 4.0 0.00 0.22 0.01 81 1016.7
20260506083007 46 241 1.0 4.0 0.00 0.22 0.01 81 1016.8
20260506081507 46 251 1.0 3.0 0.00 0.22 0.01 81 1016.5
20260506073112 47 238 1.0 3.0 0.00 0.22 0.01 79 1015.7
20260506071557 48 246 0.0 2.0 0.00 0.22 0.01 76 1015.5
20260506061600 49 74 0.0 5.0 0.00 0.22 0.01 65 1015.7
20260506044534 51 304 6.0 18.0 0.00 0.21 0.21 64 1016.7
20260506043033 51 330 6.0 11.0 0.00 0.21 0.21 62 1016.0
20260506041530 50 234 3.0 5.0 0.00 0.21 0.21 71 1015.6
20260506040027 50 263 3.0 5.0 0.00 0.21 0.21 72 1015.4
20260506034526 51 258 3.0 5.0 0.00 0.21 0.21 72 1015.2
20260506033023 52 246 2.0 4.0 0.00 0.21 0.21 62 1014.7
20260506031520 52 353 0.0 0.0 0.00 0.21 0.21 59 1014.3
20260506030018 52 349 1.0 3.0 0.00 0.21 0.21 58 1014.1
20260506024517 52 11 1.0 4.0 0.00 0.21 0.21 58 1013.9
20260506023017 52 354 2.0 8.0 0.00 0.21 0.21 58 1013.8
20260506021515 53 345 2.0 7.0 0.00 0.21 0.21 58 1013.6
20260506020025 53 9 4.0 10.0 0.00 0.21 0.21 57 1013.3
20260506014514 53 308 5.0 12.0 0.00 0.21 0.21 57 1013.1
20260506013013 53 326 0.0 5.0 0.00 0.21 0.21 57 1012.9
20260506011512 53 335 0.0 4.0 0.00 0.21 0.21 55 1012.7
20260506010016 54 335 1.0 6.0 0.00 0.21 0.21 54 1012.5
20260506004521 54 345 2.0 8.0 0.00 0.21 0.21 52 1012.4
20260506003011 54 345 3.0 6.0 0.00 0.21 0.21 52 1012.3
20260506001511 54 340 2.0 6.0 0.00 0.21 0.21 52 1012.4
20260506000010 55 351 1.0 9.0 0.00 0.21 0.21 54 1012.1
20260505234512 55 330 4.0 11.0 0.00 0.21 0.21 59 1012.3
20260505233009 54 349 1.0 4.0 0.00 0.21 0.21 72 1012.1
20260505231513 54 253 1.0 4.0 0.00 0.21 0.21 72 1012.1
20260505230017 54 255 1.0 3.0 0.00 0.21 0.21 71 1012.3
20260505224506 54 228 1.0 4.0 0.00 0.21 0.21 71 1011.8
20260505223007 54 246 0.0 5.0 0.00 0.21 0.21 71 1011.8
20260505221507 54 248 1.0 4.0 0.00 0.21 0.21 71 1011.9
20260505220006 54 243 2.0 5.0 0.00 0.21 0.21 70 1011.9
20260505214505 54 324 0.0 3.0 0.00 0.21 0.21 70 1012.1
20260505213007 53 329 1.0 4.0 0.00 0.21 0.21 71 1012.1
20260505211504 53 328 1.0 4.0 0.00 0.21 0.21 71 1012.2
20260505210004 53 282 0.0 3.0 0.00 0.21 0.21 71 1012.2
20260505204503 53 297 0.0 5.0 0.00 0.21 0.21 70 1012.3
20260505203010 53 340 2.0 5.0 0.00 0.21 0.21 70 1012.5
20260505201505 52 340 2.0 6.0 0.00 0.21 0.21 70 1012.4
20260505200002 52 356 0.0 4.0 0.00 0.21 0.21 71 1012.6
20260505194501 51 2 0.0 5.0 0.00 0.21 0.21 71 1012.5
20260505193001 51 18 2.0 7.0 0.00 0.21 0.21 71 1012.8
20260505191606 51 350 1.0 6.0 0.00 0.21 0.21 72 1012.6
20260505190115 51 8 0.0 3.0 0.00 0.21 0.21 72 1012.8
20260505184600 51 24 1.0 5.0 0.00 0.21 0.21 73 1012.7
20260505183059 51 95 0.0 3.0 0.00 0.21 0.21 73 1012.7
20260505181641 50 70 1.0 4.0 0.00 0.21 0.21 74 1012.9
20260505180106 50 124 2.0 7.0 0.00 0.21 0.21 75 1012.7
20260505174536 50 62 3.0 6.0 0.00 0.21 0.21 75 1012.8
20260505173026 50 68 4.0 7.0 0.00 0.21 0.21 76 1013.0
20260505171533 49 43 4.0 8.0 0.00 0.21 0.21 79 1012.9
20260505170025 49 33 3.0 7.0 0.00 0.21 0.21 80 1013.0